Find Starlink 34441

NORAD ID: 64430 Int'l Des: 2025-129 Owner: SPXS Country: US Constellation: starlink operational
LEOCIRCULAR

Aktuelle Ansicht

3D-Globus wird geladen...

Über Starlink 34441

Beschreibung wird geladen...

Nächste Überflüge

Passes for default location (London). Set your location on the main map for personalized predictions.

Höhenverlauf

Loading altitude history...

Zweizeiliger Elementsatz

1 64430U 25129U 26149.51600816 .00001845 00000-0 16233-3 0 9991
2 64430 70.0012 230.6886 0003710 268.5485 91.5249 14.98334516 53395
Epoch: 29. Mai 2026 • Age: 19 hours

Aktueller Status

Höhe 594.4 km
Geschwindigkeit 7.56 km/s
Subsatellitenpunkt -67.60°S, 114.86°E
Startdatum 17. Juni 2025
Alter 0.9 years
Typ internet

Technische Details

Klassifizierung Payload
Masse 575.00 kg
Trockenmasse 530.00 kg
Gesamtmasse 575.00 kg
Länge 0.30 m
Durchmesser 4.10 m
Spannweite 29.00 m
Form Box + pan
Hersteller SPXS
Bus-Typ Starlink V2MO
Phasenstatus In Orbit
Besitzer/Staat SPXS/US

Most Searched